Location: Newark
(34.3481°N, 134.0494°E)
Time: 15:10:51
(UTC+00:00)

Vanguard 3 - Pass Details

Date: 30 January 2020
Orbit: 508 x 3263 km, 33.3° (Epoch: 25 February)

Event Time Altitude Azimuth Distance (km) Brightness Sun altitude
Rises 14:46:30 0° 283° (WNW) 6,673 12.0 -72.0°
Enters shadow 14:52:11 - 271° (W) 5,390 11.3 -72.4°
Reaches altitude 10° 14:53:11 10° 269° (W) 5,173 - -72.5°
Maximum altitude 15:01:44 19° 232° (SW) 3,695 - -73.0°
Drops below altitude 10° 15:08:06 10° 191° (SSW) 3,662 - -73.2°
Sets 15:11:44 0° 173° (S) 4,200 - -73.3°
